Location: Stoke Bliss
(52.2667°N, 2.5167°W)
Time: 02:04:55
(UTC+00:00)

Meteor 1-19 Rocket - Pass Details

Date: 17 June 2021
Orbit: 808 x 927 km, 81.2° (Epoch: 02 August)

Event Time Altitude Azimuth Distance (km) Brightness Sun altitude
Rises 02:54:35 0° 352° (N) 3,567 8.2 -6.4°
Reaches altitude 10° 02:58:11 10° 14° (NNE) 2,633 8.0 -6.0°
Maximum altitude 03:01:47 16° 51° (NE) 2,226 7.8 -5.7°
Drops below altitude 10° 03:05:24 10° 88° (E) 2,635 7.4 -5.3°
Sets 03:08:58 0° 109° (ESE) 3,571 7.7 -5.0°
